Weather in Shtykovo

Russia / Primorsky Krai     43°23′02″N   132°22′10″E
temp.,
°C
wind,
m/s
gust,
m/s
humid.,
%
clouds,
%
prec.,
mm/h
press.,
hPa
HPBL,
m
27 november, sat
sat2701:00−8nnw398142 0.0 1028384
04:00−8nnw2108363 0.0 1030377
07:00−9nnw258620 0.0 1031140
10:00−6n387275 0.0 1033352
13:00−2n510581 0.0 1032733
16:00−2n48650 0.0 1033562
19:00−6n22905 0.0 103431
22:00−7nne21905 0.0 103424
28 november, sun
sun2801:00−7nne21885 0.0 103417
04:00−8nne11875 0.0 103415
07:00−8ne11885 0.0 103310
10:00−4se11650 0.0 103256
13:00+1sse23543 0.0 1030220
16:00+1sse23645 0.0 1028169
19:00−3se2182100 0.0 102818
22:00−2ese2184100 0.0 102721
29 november, mon
mon2901:00−3ese119217 0.0 102612
04:00−3e119448 0.0 102510
07:00−3ese119690 0.0 102512
10:000se128882 0.0 102453
13:00+5wsw13715 0.0 1023221
16:00+4nw138455 0.0 102361
19:00+1n2294100 0.0 102450
22:00−1n2396100 0.0 102463
30 november, tue
tue3001:00−3nnw2296100 0.0 102467
04:00−2nnw2289100 0.0 1022143
07:00−2nnw2390100 0.0 1018115
10:00−1nw2383100 0.0 1016183
13:00−1nnw2287100 0.1 1011133
16:000nnw3398100 4.7 1003109
19:00−1nw4697100 17.6 998204
22:00−4nnw71491100 20.6 998592
1 december, wed
wed101:00−8n8169099 1.6 999707
04:00−9n81788100 2.1 997904
07:00−9nnw91790100 2.2 9981247
10:00−9nnw71791100 4.4 10001367
13:00−7nnw81691100 2.0 10011462
16:00−8nw91776100 3.1 10031348
19:00−10nw7167196 0.0 10051115
22:00−11nw615725 0.0 10081000